Location: Focicchia
(42.2496°N, 9.2935°E)
Time: 03:05:56
(UTC+00:00)

Cosmos 2221 - Pass Details

Date: 07 June 2020
Orbit: 594 x 615 km, 82.5° (Epoch: 06 July)

Event Time Altitude Azimuth Distance (km) Brightness Sun altitude
Rises 00:30:55 0° 3° (N) 2,880 7.3 -23.0°
Reaches altitude 10° 00:33:26 10° 16° (NNE) 1,974 6.3 -22.9°
Maximum altitude 00:37:09 27° 74° (ENE) 1,196 4.3 -22.7°
Enters shadow 00:39:28 17° 119° (ESE) 1,542 4.5 -22.5°
